Time+03,TemperatureF,Dew PointF,Humidity,Sea Level PressureIn,VisibilityMPH,Wind Direction,Wind SpeedMPH,Gust SpeedMPH,PrecipitationIn,Events,Conditions,WindDirDegrees,DateUTC
12:00 AM,87.8,73.4,62,29.80,-9999.0,East,5.8,-,N/A,,Clear,80,2012-09-26 21:00:00
12:30 AM,87.8,71.6,58,29.80,-9999.0,East,5.8,-,N/A,,Clear,80,2012-09-26 21:30:00
1:00 AM,87.8,73.4,62,29.80,-9999.0,East,4.6,-,N/A,,Clear,100,2012-09-26 22:00:00
1:30 AM,87.8,73.4,62,29.80,-9999.0,East,8.1,-,N/A,,Clear,100,2012-09-26 22:30:00
2:00 AM,87.8,73.4,62,29.80,-9999.0,ESE,9.2,-,N/A,,Clear,120,2012-09-26 23:00:00
2:30 AM,87.8,73.4,62,29.80,-9999.0,SE,4.6,-,N/A,,Clear,130,2012-09-26 23:30:00
3:00 AM,88,73,54,29.81,9,SE,6.9,,,,,140,2012-09-27 00:00:00
3:00 AM,87.8,73.4,62,29.80,-9999.0,SE,6.9,-,N/A,,Clear,140,2012-09-27 00:00:00
3:30 AM,87.8,73.4,62,29.80,-9999.0,SSE,5.8,-,N/A,,Clear,150,2012-09-27 00:30:00
4:00 AM,87.8,73.4,62,29.80,-9999.0,SE,9.2,-,N/A,,Clear,130,2012-09-27 01:00:00
4:30 AM,87.8,73.4,62,29.80,-9999.0,SE,8.1,-,N/A,,Clear,130,2012-09-27 01:30:00
5:00 AM,87.8,73.4,62,29.83,-9999.0,SE,4.6,-,N/A,,Clear,140,2012-09-27 02:00:00
5:30 AM,87.8,73.4,62,29.83,-9999.0,Variable,1.2,-,N/A,,Clear,0,2012-09-27 02:30:00
6:00 AM,87.8,75.2,66,29.83,-9999.0,Variable,2.3,-,N/A,,Clear,0,2012-09-27 03:00:00
6:30 AM,86.0,75.2,70,29.86,-9999.0,Variable,2.3,-,N/A,,Clear,0,2012-09-27 03:30:00
7:00 AM,87.8,77.0,70,29.86,-9999.0,Variable,2.3,-,N/A,,Clear,0,2012-09-27 04:00:00
7:30 AM,91.4,77.0,63,29.86,-9999.0,SSE,4.6,-,N/A,,Clear,160,2012-09-27 04:30:00
8:00 AM,93.2,77.0,59,29.89,-9999.0,SSE,5.8,-,N/A,,Clear,150,2012-09-27 05:00:00
8:30 AM,93.2,77.0,59,29.89,-9999.0,SE,9.2,-,N/A,,Clear,130,2012-09-27 05:30:00
9:00 AM,95,78,48,29.90,7,SSE,5.8,,,,Scattered Clouds,150,2012-09-27 06:00:00
9:00 AM,95.0,77.0,56,29.89,-9999.0,SSE,5.8,-,N/A,,Clear,150,2012-09-27 06:00:00
9:30 AM,96.8,77.0,53,29.89,-9999.0,SE,5.8,-,N/A,,Clear,130,2012-09-27 06:30:00
10:00 AM,95.0,77.0,56,29.89,-9999.0,ESE,9.2,-,N/A,,Clear,110,2012-09-27 07:00:00
10:30 AM,95.0,77.0,56,29.89,-9999.0,SE,9.2,-,N/A,,Clear,130,2012-09-27 07:30:00
11:00 AM,96.8,77.0,53,29.89,6.2,ESE,11.5,-,N/A,,Partly Cloudy,110,2012-09-27 08:00:00
11:30 AM,95.0,78.8,59,29.86,6.2,ESE,11.5,-,N/A,,Partly Cloudy,110,2012-09-27 08:30:00
12:00 PM,95.0,78.8,59,29.86,6.2,ESE,11.5,-,N/A,,Partly Cloudy,110,2012-09-27 09:00:00
12:30 PM,96.8,78.8,56,29.86,6.2,ESE,11.5,-,N/A,,Partly Cloudy,110,2012-09-27 09:30:00
1:30 PM,95.0,78.8,59,29.83,6.2,East,11.5,-,N/A,,Partly Cloudy,90,2012-09-27 10:30:00
2:00 PM,95.0,77.0,56,29.83,6.2,East,10.4,-,N/A,,Partly Cloudy,80,2012-09-27 11:00:00
2:30 PM,96.8,75.2,50,29.83,6.2,East,10.4,-,N/A,,Partly Cloudy,90,2012-09-27 11:30:00
3:00 PM,96.8,77.0,53,29.83,6.2,East,11.5,-,N/A,,Partly Cloudy,80,2012-09-27 12:00:00
3:30 PM,95.0,77.0,56,29.80,6.2,ENE,11.5,-,N/A,,Partly Cloudy,60,2012-09-27 12:30:00
4:00 PM,95.0,77.0,56,29.80,6.2,ENE,11.5,-,N/A,,Partly Cloudy,70,2012-09-27 13:00:00
4:30 PM,95.0,77.0,56,29.83,6.2,ENE,11.5,-,N/A,,Partly Cloudy,70,2012-09-27 13:30:00
5:00 PM,93.2,77.0,59,29.83,6.2,ENE,11.5,-,N/A,,Partly Cloudy,70,2012-09-27 14:00:00
5:30 PM,93.2,78.8,63,29.83,5.6,ENE,11.5,-,N/A,,Unknown,70,2012-09-27 14:30:00
6:00 PM,91.4,78.8,66,29.83,5.0,ENE,12.7,-,N/A,,Unknown,60,2012-09-27 15:00:00
6:30 PM,91.4,78.8,66,29.86,5.0,ENE,12.7,-,N/A,,Unknown,70,2012-09-27 15:30:00
7:00 PM,91.4,78.8,66,29.86,5.6,ENE,10.4,-,N/A,,Partly Cloudy,60,2012-09-27 16:00:00
7:30 PM,91.4,80.6,71,29.86,5.6,ENE,9.2,-,N/A,,Partly Cloudy,60,2012-09-27 16:30:00
8:00 PM,91.4,80.6,71,29.89,5.6,NE,10.4,-,N/A,,Partly Cloudy,50,2012-09-27 17:00:00
8:30 PM,91.4,80.6,71,29.89,5.6,ENE,9.2,-,N/A,,Partly Cloudy,60,2012-09-27 17:30:00
9:00 PM,91,80,62,29.91,6,ENE,8.1,,,,Haze,60,2012-09-27 18:00:00
9:00 PM,91.4,80.6,71,29.89,5.6,ENE,8.1,-,N/A,,Partly Cloudy,60,2012-09-27 18:00:00
9:30 PM,91.4,78.8,66,29.89,5.6,ENE,8.1,-,N/A,,Partly Cloudy,60,2012-09-27 18:30:00
10:00 PM,89.6,80.6,75,29.89,5.6,ENE,6.9,-,N/A,,Partly Cloudy,70,2012-09-27 19:00:00
10:30 PM,89.6,80.6,75,29.89,5.6,ENE,5.8,-,N/A,,Partly Cloudy,60,2012-09-27 19:30:00
11:00 PM,89.6,80.6,75,29.89,5.6,NE,5.8,-,N/A,,Partly Cloudy,50,2012-09-27 20:00:00
11:30 PM,89.6,80.6,75,29.89,5.6,NE,5.8,-,N/A,,Unknown,50,2012-09-27 20:30:00